Location: Brodeslavy
(49.9527°N, 13.5567°E)
Time: 05:09:03
(UTC+00:00)

ALOS 2 - Pass Details

Date: 17 June 2025
Orbit: 630 x 632 km, 97.9° (Epoch: 12 July)

Event Time Altitude Azimuth Distance (km) Brightness Sun altitude
Exits shadow 22:39:04 30° 183° (S) 1,132 3.3 -16.4°
Maximum altitude 22:41:08 67° 257° (WSW) 688 2.7 -16.4°
Drops below altitude 10° 22:45:32 10° 341° (NNW) 2,026 6.4 -16.5°
Sets 22:47:46 0° 345° (NNW) 2,938 7.7 -16.5°
